User: anonymous   Login
Location: Hamburg
(53.5500°N, 10.0000°E)
Time: 08:12:16
(UTC+02:00)
Language:

Iridium 10 - Orbit

View from above orbital plane
View from above orbital plane
View from above satellite
View from above satellite

Ground track
Ground track

The orbit data is extracted from the following two-line orbital elements,

1 24839U 97030D   17234.59705698 +.00000189 +00000-0 +60368-4 0  9996
2 24839 086.3986 322.3103 0002214 094.4048 040.7815 14.34219293056453
Epoch (UTC): 22 August 2017 14:19:45
Eccentricity: 0.0002214
inclination: 86.3986°
perigee height: 776 km
apogee height: 779 km
right ascension of ascending node: 322.3103°
argument of perigee: 94.4048°
revolutions per day: 14.34219293
mean anomaly at epoch: 40.7815°
orbit number at epoch: 5645

The dashed part of the orbit path shows where the satellite is in the earth's shadow,  

DLR